DW4719 Vilanova I la Geltru ES current weather conditions

sailwx.info

Wind from 272 at 0 knots

Air temperature 22.8° C
Dewpoint 19.3° C

Last reported at 2017-Sep-24 19:09 UTC.
Time now 2017-Sep-24 19:46 UTC

Location: N 41°13' E 001°44'.
View on Google Maps.

See reports from other nearby stations

  
Tides and Currents Weather Stations Pressure Air Temp Water Temp Dewpoint Dewpoint Depression Visibility Wind Speed Wind Dir Waves Ship Positions
date/time (UTC)wind fromknots sea level pressurealtimeterstation pressurevisibilityair tempwater tempwave heightnotes
2017-Sep-24 19:09 272 0 22.8
2017-Sep-24 19:04 272 0 22.8
2017-Sep-24 18:59 261 1 22.8
2017-Sep-24 18:54 258 1 22.8
2017-Sep-24 18:49 258 1 22.8
2017-Sep-24 18:44 260 1 22.8
2017-Sep-24 18:39 258 1 22.8
2017-Sep-24 18:34 254 1 22.8
2017-Sep-24 18:29 263 2 22.8
2017-Sep-24 18:24 256 1 22.8
2017-Sep-24 18:19 289 1 23.3
2017-Sep-24 18:14 270 3 23.3
2017-Sep-24 18:09 264 2 23.3
2017-Sep-24 18:04 244 3 23.3
2017-Sep-24 17:59 244 3 23.3
2017-Sep-24 17:54 288 3 23.3
2017-Sep-24 17:49 256 3 23.3
2017-Sep-24 17:44 254 3 23.3
2017-Sep-24 17:39 260 3 23.3
2017-Sep-24 17:34 264 4 23.3
2017-Sep-24 17:29 251 3 23.3
2017-Sep-24 17:24 227 3 23.3
2017-Sep-24 17:19 237 4 23.3
2017-Sep-24 17:14 233 3 23.9
2017-Sep-24 17:09 256 2 23.9
2017-Sep-24 17:04 263 3 23.9
2017-Sep-24 16:59 261 4 23.9
2017-Sep-24 16:54 248 4 23.9
2017-Sep-24 16:49 264 4 23.9
2017-Sep-24 16:44 265 4 23.9
2017-Sep-24 16:39 274 4 23.9
2017-Sep-24 16:34 220 4 23.9
2017-Sep-24 16:29 280 4 23.9
2017-Sep-24 16:24 215 4 23.9
2017-Sep-24 16:19 241 4 23.9
2017-Sep-24 16:14 263 4 24.4
2017-Sep-24 16:09 258 4 23.9
2017-Sep-24 16:04 219 4 23.9
2017-Sep-24 15:59 243 5 23.9
2017-Sep-24 15:54 243 4 24.4
2017-Sep-24 15:49 253 3 23.9
2017-Sep-24 15:44 254 4 24.4
2017-Sep-24 15:39 251 4 24.4
2017-Sep-24 15:34 223 3 24.4
2017-Sep-24 15:29 232 4 24.4
2017-Sep-24 15:24 258 4 24.4
2017-Sep-24 15:19 250 4 24.4
2017-Sep-24 15:14 220 4 24.4
2017-Sep-24 15:09 250 4 24.4
2017-Sep-24 15:04 209 5 24.4
2017-Sep-24 14:59 257 5 24.4
2017-Sep-24 14:54 230 4 25.0
2017-Sep-24 14:49 258 4 25.0
2017-Sep-24 14:44 253 4 25.0
2017-Sep-24 14:39 227 5 25.0
2017-Sep-24 14:34 241 4 24.4
2017-Sep-24 14:29 256 4 25.0
2017-Sep-24 14:24 212 4 25.0
2017-Sep-24 14:19 224 4 25.0
2017-Sep-24 14:14 248 4 25.0
2017-Sep-24 14:09 236 5 25.0
2017-Sep-24 14:04 232 5 25.0
2017-Sep-24 13:59 236 4 25.6
2017-Sep-24 13:54 260 4 25.0
2017-Sep-24 13:49 256 4 25.0
2017-Sep-24 13:44 236 4 25.0
2017-Sep-24 13:39 248 3 25.6
2017-Sep-24 13:34 162 4 25.6
2017-Sep-24 13:29 106 4 25.0
2017-Sep-24 13:24 217 4 25.0
2017-Sep-24 13:13 287 4 25.0
2017-Sep-24 13:09 206 5 25.0
2017-Sep-24 13:04 246 5 25.0
2017-Sep-24 12:59 251 4 25.0
2017-Sep-24 12:54 237 4 25.0
2017-Sep-24 12:49 224 4 25.0
2017-Sep-24 12:44 260 4 25.0
2017-Sep-24 12:39 248 4 24.4
2017-Sep-24 12:34 264 4 25.0
2017-Sep-24 12:29 264 4 25.0
2017-Sep-24 12:24 277 5 25.0
2017-Sep-24 12:19 277 6 24.4
2017-Sep-24 12:14 264 5 24.4
2017-Sep-24 12:09 288 4 25.0
2017-Sep-24 12:04 210 5 25.0
2017-Sep-24 11:59 229 5 24.4
2017-Sep-24 11:54 263 6 24.4
2017-Sep-24 11:49 264 5 24.4
2017-Sep-24 11:44 196 6 24.4
2017-Sep-24 11:39 270 6 24.4
2017-Sep-24 11:34 299 6 24.4
2017-Sep-24 11:29 236 6 24.4
2017-Sep-24 11:24 229 4 25.0
2017-Sep-24 11:19 198 4 24.4
2017-Sep-24 11:14 230 4 24.4
2017-Sep-24 11:09 270 5 24.4
2017-Sep-24 11:04 227 5 24.4
2017-Sep-24 10:59 268 5 24.4
2017-Sep-24 10:54 253 6 24.4
2017-Sep-24 10:49 246 6 23.9
2017-Sep-24 10:44 260 6 23.9
2017-Sep-24 10:39 232 5 24.4
2017-Sep-24 10:34 215 5 23.9
2017-Sep-24 10:29 240 6 23.9
2017-Sep-24 10:24 253 6 23.9
2017-Sep-24 10:19 236 6 23.9
2017-Sep-24 10:14 237 6 23.9
2017-Sep-24 10:09 226 5 23.9
2017-Sep-24 10:04 280 5 23.9
2017-Sep-24 09:59 280 5 23.9
2017-Sep-24 09:54 272 5 23.9
2017-Sep-24 09:49 272 5 23.9
2017-Sep-24 09:44 257 5 23.9
2017-Sep-24 09:39 248 5 23.9
2017-Sep-24 09:34 253 5 23.9
2017-Sep-24 09:29 277 5 23.9
2017-Sep-24 09:24 246 4 23.9
2017-Sep-24 09:19 271 5 23.9
2017-Sep-24 09:14 247 6 23.9
2017-Sep-24 09:09 230 5 23.9
2017-Sep-24 09:04 261 5 23.9
2017-Sep-24 08:59 275 5 23.9
2017-Sep-24 08:54 264 5 23.3
2017-Sep-24 08:49 247 5 23.3
2017-Sep-24 08:44 263 5 23.3
2017-Sep-24 08:39 301 4 22.8
2017-Sep-24 08:34 267 3 22.8
2017-Sep-24 08:29 264 3 22.8
2017-Sep-24 08:24 261 2 22.8
2017-Sep-24 08:19 296 2 22.2
2017-Sep-24 08:14 267 2 22.2
2017-Sep-24 08:09 280 2 22.2
2017-Sep-24 08:04 288 0 21.7
2017-Sep-24 07:59 284 0 21.7
2017-Sep-24 07:54 277 0 21.7
2017-Sep-24 07:49 068 21.7
2017-Sep-24 07:44 068 21.1
2017-Sep-24 07:39 065 21.1
2017-Sep-24 07:34 066 20.6
2017-Sep-24 07:29 065 20.6
2017-Sep-24 07:24 064 20.0
2017-Sep-24 07:19 065 19.4
2017-Sep-24 07:14 065 19.4
2017-Sep-24 07:09 065 18.9
2017-Sep-24 07:04 064 18.9
2017-Sep-24 06:59 065 18.9
2017-Sep-24 06:54 065 18.9
2017-Sep-24 06:49 065 18.3
2017-Sep-24 06:44 064 18.3
2017-Sep-24 06:39 064 18.3
2017-Sep-24 06:34 069 18.3
2017-Sep-24 06:29 068 17.8
2017-Sep-24 06:24 072 17.8
2017-Sep-24 06:19 071 17.8
2017-Sep-24 06:14 071 0 17.8
2017-Sep-24 06:09 071 0 17.8
2017-Sep-24 06:04 047 17.8
2017-Sep-24 05:59 054 17.8
2017-Sep-24 05:54 049 17.8
2017-Sep-24 05:49 049 17.8
2017-Sep-24 05:44 049 17.8
2017-Sep-24 05:39 049 17.8
2017-Sep-24 05:34 049 17.8
2017-Sep-24 05:29 049 17.8
2017-Sep-24 05:24 049 17.8
2017-Sep-24 05:19 048 17.8
2017-Sep-24 05:14 048 17.8
2017-Sep-24 05:09 049 17.8
2017-Sep-24 05:04 048 17.8
2017-Sep-24 04:59 049 17.8
2017-Sep-24 04:54 049 17.8
2017-Sep-24 04:49 049 0 17.8
2017-Sep-24 04:44 049 17.8
2017-Sep-24 04:39 049 17.8
2017-Sep-24 04:34 049 17.8
2017-Sep-24 04:29 049 17.8
2017-Sep-24 04:24 048 17.8
2017-Sep-24 04:19 048 17.8
2017-Sep-24 04:14 048 17.8
2017-Sep-24 04:09 048 17.8
2017-Sep-24 04:04 048 17.8
2017-Sep-24 03:59 048 17.8
2017-Sep-24 03:54 048 17.8
2017-Sep-24 03:49 048 17.8
2017-Sep-24 03:44 048 17.8
2017-Sep-24 03:39 048 17.8
2017-Sep-24 03:34 048 17.8
2017-Sep-24 03:29 048 18.3
2017-Sep-24 03:24 048 18.3
2017-Sep-24 03:19 048 18.3
2017-Sep-24 03:14 048 18.3
2017-Sep-24 03:09 048 18.3
2017-Sep-24 03:04 048 18.3
2017-Sep-24 02:59 048 18.3
2017-Sep-24 02:54 048 18.3
2017-Sep-24 02:49 047 18.3
2017-Sep-24 02:44 047 18.3
2017-Sep-24 02:39 047 18.3
2017-Sep-24 02:34 047 18.3
2017-Sep-24 02:29 048 18.3
2017-Sep-24 02:24 047 18.3
2017-Sep-24 02:19 048 18.3
2017-Sep-24 02:14 048 18.3
2017-Sep-24 02:09 047 18.3
2017-Sep-24 02:04 048 18.3
2017-Sep-24 01:59 048 18.9
2017-Sep-24 01:54 047 18.9
2017-Sep-24 01:49 047 18.9
2017-Sep-24 01:44 047 18.9
2017-Sep-24 01:39 048 18.3
2017-Sep-24 01:34 048 18.3
2017-Sep-24 01:29 048 18.3
2017-Sep-24 01:24 048 18.3
2017-Sep-24 01:19 048 18.9
2017-Sep-24 01:14 048 18.9
2017-Sep-24 01:09 048 18.9
2017-Sep-24 01:04 048 18.9
2017-Sep-24 00:59 048 18.9
2017-Sep-24 00:54 045 18.9
2017-Sep-24 00:49 045 18.9
2017-Sep-24 00:44 045 18.9
2017-Sep-24 00:39 045 18.9
2017-Sep-24 00:34 045 0 18.9
2017-Sep-24 00:29 045 0 18.9
2017-Sep-24 00:24 044 18.9
2017-Sep-24 00:19 042 0 18.9
2017-Sep-24 00:14 042 18.9
2017-Sep-24 00:09 041 18.9
2017-Sep-24 00:04 041 18.9
2017-Sep-23 23:59 041 18.9
2017-Sep-23 23:54 041 18.9
2017-Sep-23 23:49 041 18.9
2017-Sep-23 23:44 041 18.9
2017-Sep-23 23:39 041 19.4
2017-Sep-23 23:35 041 19.4
2017-Sep-23 23:29 041 19.4
2017-Sep-23 23:24 047 19.4
2017-Sep-23 23:19 047 19.4
2017-Sep-23 23:14 047 19.4
2017-Sep-23 23:09 048 19.4
2017-Sep-23 23:05 048 19.4
2017-Sep-23 22:59 048 19.4
2017-Sep-23 22:54 048 19.4
2017-Sep-23 22:49 048 19.4
2017-Sep-23 22:44 048 20.0
2017-Sep-23 22:39 048 20.0
2017-Sep-23 22:34 048 20.0
2017-Sep-23 22:29 047 20.0
2017-Sep-23 22:24 047 20.0
2017-Sep-23 22:19 047 20.0
2017-Sep-23 22:14 047 20.0
2017-Sep-23 22:09 047 20.6
2017-Sep-23 22:04 048 20.6
2017-Sep-23 21:59 048 20.6
2017-Sep-23 21:54 048 20.6
2017-Sep-23 21:49 048 20.6
2017-Sep-23 21:44 048 20.6
2017-Sep-23 21:39 048 20.6
2017-Sep-23 21:34 048 20.6
2017-Sep-23 21:29 048 20.6
2017-Sep-23 21:24 048 21.1
2017-Sep-23 21:19 048 21.1
2017-Sep-23 21:14 048 21.1
2017-Sep-23 21:09 027 21.1
2017-Sep-23 21:04 027 21.1
2017-Sep-23 20:59 027 21.1
2017-Sep-23 20:55 360 21.1
2017-Sep-23 20:49 360 21.1
2017-Sep-23 20:45 359 21.7
2017-Sep-23 20:39 343 21.7
2017-Sep-23 20:34 343 21.7
2017-Sep-23 20:29 343 21.7
2017-Sep-23 20:24 343 21.7
2017-Sep-23 20:19 343 21.7
2017-Sep-23 20:14 343 22.2
2017-Sep-23 20:09 343 22.2
2017-Sep-23 20:04 343 22.2
2017-Sep-23 19:59 343 22.2
2017-Sep-23 19:54 343 22.2
2017-Sep-23 19:49 316 0 22.2
2017-Sep-23 19:44 292 0 22.2
2017-Sep-23 19:39 278 0 22.2
2017-Sep-23 19:34 267 1 22.2
2017-Sep-23 19:29 267 1 22.2
2017-Sep-23 19:24 263 1 22.2
2017-Sep-23 19:19 274 1 22.2
2017-Sep-23 19:14 265 1 22.2
2017-Sep-23 19:10 256 1 22.2
2017-Sep-23 19:04 253 1 22.8
2017-Sep-23 18:59 247 1 22.8
2017-Sep-23 18:54 270 2 22.8
2017-Sep-23 18:49 260 1 22.8
2017-Sep-23 18:41 274 2 22.8
2017-Sep-23 18:39 268 2 22.8
2017-Sep-23 18:34 264 2 22.8
2017-Sep-23 18:29 250 2 22.8
2017-Sep-23 18:24 264 2 22.8
2017-Sep-23 18:19 274 2 22.8
2017-Sep-23 18:14 239 2 22.8
2017-Sep-23 18:09 248 2 22.8
2017-Sep-23 18:04 272 2 22.8
2017-Sep-23 17:59 254 2 22.8
2017-Sep-23 17:54 246 1 22.8
2017-Sep-23 17:50 240 1 22.8
2017-Sep-23 17:44 254 2 22.8
2017-Sep-23 17:39 280 2 23.3
2017-Sep-23 17:34 247 1 23.3
2017-Sep-23 17:29 251 2 23.3
2017-Sep-23 17:24 250 2 23.3
2017-Sep-23 17:20 246 2 23.3
2017-Sep-23 17:14 223 2 23.3
2017-Sep-23 17:09 247 3 23.3
2017-Sep-23 17:04 240 3 23.3
2017-Sep-23 16:59 230 2 23.3
2017-Sep-23 16:54 226 3 23.3
2017-Sep-23 16:49 239 3 23.3
2017-Sep-23 16:45 260 3 23.3
2017-Sep-23 16:39 247 2 23.3
2017-Sep-23 16:34 229 2 23.9
2017-Sep-23 16:29 184 2 23.9
2017-Sep-23 16:24 236 2 23.9
2017-Sep-23 16:19 232 2 23.9
2017-Sep-23 16:14 199 2 23.9
2017-Sep-23 16:09 215 2 23.9
2017-Sep-23 16:04 215 2 23.9
2017-Sep-23 15:59 229 2 23.9
2017-Sep-23 15:54 202 2 23.9
2017-Sep-23 15:49 254 2 23.9
2017-Sep-23 15:44 250 2 24.4
2017-Sep-23 15:39 196 2 24.4
2017-Sep-23 15:34 239 3 24.4
2017-Sep-23 15:29 202 3 24.4
2017-Sep-23 15:24 232 3 24.4
2017-Sep-23 15:19 219 3 24.4
2017-Sep-23 15:15 208 2 24.4
2017-Sep-23 15:10 224 3 24.4
2017-Sep-23 15:04 244 3 23.9
2017-Sep-23 15:00 250 3 23.9
2017-Sep-23 14:54 243 2 23.9
2017-Sep-23 14:49 223 3 24.4
2017-Sep-23 14:44 195 3 24.4
2017-Sep-23 14:39 229 2 24.4
2017-Sep-23 14:34 250 3 23.9
2017-Sep-23 14:30 213 3 23.9
2017-Sep-23 14:24 239 2 23.9
2017-Sep-23 14:19 272 2 24.4
2017-Sep-23 14:14 257 2 24.4
2017-Sep-23 14:09 246 3 24.4
2017-Sep-23 14:04 263 3 24.4
2017-Sep-23 13:59 220 3 25.0
2017-Sep-23 13:54 200 3 25.0
2017-Sep-23 13:49 248 3 25.0
2017-Sep-23 13:44 246 3 25.0
2017-Sep-23 13:39 215 2 25.0
2017-Sep-23 13:34 199 3 25.0
2017-Sep-23 13:29 267 3 25.0
2017-Sep-23 13:24 216 3 25.0
2017-Sep-23 13:19 168 3 25.0
2017-Sep-23 13:14 217 3 25.0
2017-Sep-23 13:09 263 3 25.0
2017-Sep-23 13:04 224 2 25.0
2017-Sep-23 12:59 239 3 25.0
2017-Sep-23 12:54 281 4 25.0
2017-Sep-23 12:49 233 3 25.0
2017-Sep-23 12:45 251 3 25.0
2017-Sep-23 12:39 230 3 25.0
2017-Sep-23 12:34 237 4 24.4
2017-Sep-23 12:29 226 4 24.4
2017-Sep-23 12:24 267 3 25.0
2017-Sep-23 12:19 268 4 25.0
2017-Sep-23 12:14 292 4 24.4
2017-Sep-23 12:09 232 4 24.4
2017-Sep-23 12:04 230 4 24.4
2017-Sep-23 11:59 239 4 24.4
2017-Sep-23 11:54 195 3 24.4
2017-Sep-23 11:49 164 3 25.0
2017-Sep-23 11:44 195 3 24.4
2017-Sep-23 11:39 203 3 25.0
2017-Sep-23 11:34 191 3 25.0
2017-Sep-23 11:29 185 2 25.0
2017-Sep-23 11:24 168 2 25.0
2017-Sep-23 11:20 191 2 24.4
2017-Sep-23 11:14 224 3 24.4
2017-Sep-23 11:09 184 3 24.4
2017-Sep-23 11:04 179 2 24.4
2017-Sep-23 10:59 239 2 25.0
2017-Sep-23 10:54 208 3 24.4
2017-Sep-23 10:49 217 4 24.4
2017-Sep-23 10:44 237 4 24.4
2017-Sep-23 10:39 219 3 24.4
2017-Sep-23 10:34 184 3 24.4
2017-Sep-23 10:29 215 3 24.4
2017-Sep-23 10:24 223 2 24.4
2017-Sep-23 10:19 223 3 24.4
2017-Sep-23 10:14 200 3 23.9
2017-Sep-23 10:09 189 3 24.4
2017-Sep-23 10:04 182 2 24.4
2017-Sep-23 09:59 236 2 24.4
2017-Sep-23 09:54 213 1 25.0
2017-Sep-23 09:49 168 1 25.0
2017-Sep-23 09:44 272 1 25.0
2017-Sep-23 09:39 212 2 25.0
2017-Sep-23 09:34 216 2 24.4
2017-Sep-23 09:29 264 1 24.4
2017-Sep-23 09:24 167 0 24.4
2017-Sep-23 09:19 195 23.9
2017-Sep-23 09:14 277 0 23.3
2017-Sep-23 09:09 277 0 23.3
2017-Sep-23 09:04 323 23.9
2017-Sep-23 08:59 323 0 23.3
2017-Sep-23 08:54 342 0 23.3
2017-Sep-23 08:49 004 0 23.3
2017-Sep-23 08:44 013 23.3
2017-Sep-23 08:39 024 22.8
2017-Sep-23 08:34 333 0 22.8
2017-Sep-23 08:30 333 0 22.8
2017-Sep-23 08:24 016 0 22.2
2017-Sep-23 08:19 347 0 21.7
2017-Sep-23 08:14 335 1 21.7
2017-Sep-23 08:09 360 1 21.7
2017-Sep-23 08:04 028 1 21.1
2017-Sep-23 07:59 353 1 21.1
2017-Sep-23 07:54 350 0 21.1
2017-Sep-23 07:49 329 0 21.1
2017-Sep-23 07:44 044 1 20.6
2017-Sep-23 07:39 360 0 20.6
2017-Sep-23 07:34 016 20.0
2017-Sep-23 07:29 073 0 20.0
2017-Sep-23 07:24 079 1 19.4
2017-Sep-23 07:19 075 2 18.9
2017-Sep-23 07:14 082 2 18.9
2017-Sep-23 07:09 061 2 18.9
2017-Sep-23 07:04 078 1 18.3
2017-Sep-23 07:00 090 1 18.3
2017-Sep-23 06:55 080 0 18.3
2017-Sep-23 06:49 075 0 18.3
2017-Sep-23 06:44 059 0 17.8
2017-Sep-23 06:39 065 0 17.8
2017-Sep-23 06:34 058 0 17.8
2017-Sep-23 06:29 085 1 17.8
2017-Sep-23 06:24 080 2 17.8
2017-Sep-23 06:20 048 1 17.8
2017-Sep-23 06:14 069 0 17.8
2017-Sep-23 06:09 065 0 17.8
2017-Sep-23 06:04 056 0 17.8
2017-Sep-23 05:59 064 0 17.8
2017-Sep-23 05:54 061 17.8
2017-Sep-23 05:50 069 17.8
2017-Sep-23 05:44 069 17.8
2017-Sep-23 05:39 059 17.8
2017-Sep-23 05:34 059 0 17.8
2017-Sep-23 05:29 062 0 17.8
2017-Sep-23 05:24 073 0 17.8
2017-Sep-23 05:19 052 0 17.8
2017-Sep-23 05:14 025 0 17.8
2017-Sep-23 05:10 056 1 17.8
2017-Sep-23 05:04 068 0 17.8
2017-Sep-23 04:59 024 0 17.8
2017-Sep-23 04:54 330 17.8
2017-Sep-23 04:49 360 17.8
2017-Sep-23 04:44 360 17.8
2017-Sep-23 04:39 360 0 17.8
2017-Sep-23 04:34 333 0 17.8
2017-Sep-23 04:29 347 0 17.8
2017-Sep-23 04:24 360 0 17.8
2017-Sep-23 04:19 073 0 17.8
2017-Sep-23 04:14 360 17.8
2017-Sep-23 04:09 001 17.8
2017-Sep-23 04:04 001 17.8
2017-Sep-23 03:59 001 17.8
2017-Sep-23 03:54 001 17.8
2017-Sep-23 03:49 034 0 17.8
2017-Sep-23 03:44 069 0 17.8
2017-Sep-23 03:39 068 17.8
2017-Sep-23 03:34 001 17.8
2017-Sep-23 03:29 011 17.8
2017-Sep-23 03:24 024 17.8
2017-Sep-23 03:19 078 17.8
2017-Sep-23 03:14 078 18.3
2017-Sep-23 03:09 078 18.3
2017-Sep-23 03:04 078 18.3
2017-Sep-23 02:59 078 0 18.3
2017-Sep-23 02:54 092 18.3
2017-Sep-23 02:49 034 18.3
2017-Sep-23 02:44 034 18.3
2017-Sep-23 02:39 034 18.3
2017-Sep-23 02:34 034 18.3
2017-Sep-23 02:29 034 18.3
2017-Sep-23 02:24 032 18.3
2017-Sep-23 02:19 034 18.3
2017-Sep-23 02:14 034 18.3
2017-Sep-23 02:09 034 18.3
2017-Sep-23 02:04 032 18.3
2017-Sep-23 01:59 049 18.3
2017-Sep-23 01:54 049 18.9
2017-Sep-23 01:49 047 18.9
2017-Sep-23 01:44 047 18.9
2017-Sep-23 01:39 051 18.9
2017-Sep-23 01:34 054 18.9
2017-Sep-23 01:29 054 18.9
2017-Sep-23 01:24 059 18.9
2017-Sep-23 01:20 059 18.9
2017-Sep-23 01:14 059 0 18.9
2017-Sep-23 01:09 059 0 18.9
2017-Sep-23 01:04 062 18.9
2017-Sep-23 00:59 038 18.9
2017-Sep-23 00:54 047 18.9
2017-Sep-23 00:49 047 18.9
2017-Sep-23 00:38 059 18.9
2017-Sep-23 00:34 059 18.9
2017-Sep-23 00:29 059 18.9
2017-Sep-23 00:24 059 18.9
2017-Sep-23 00:19 059 18.9
2017-Sep-23 00:14 056 18.9
2017-Sep-23 00:09 056 19.4
2017-Sep-23 00:04 056 19.4
2017-Sep-22 23:59 056 19.4
2017-Sep-22 23:54 056 19.4
2017-Sep-22 23:50 055 19.4
2017-Sep-22 23:44 028 19.4
2017-Sep-22 23:39 028 19.4
2017-Sep-22 23:34 056 19.4
2017-Sep-22 23:29 056 19.4
2017-Sep-22 23:24 076 19.4
2017-Sep-22 23:19 085 19.4
2017-Sep-22 23:14 082 19.4
2017-Sep-22 23:09 083 19.4
2017-Sep-22 23:04 083 19.4
2017-Sep-22 23:00 082 0 19.4
2017-Sep-22 22:54 090 0 19.4
2017-Sep-22 22:49 359 0 19.4
2017-Sep-22 22:44 340 19.4
2017-Sep-22 22:39 344 19.4
2017-Sep-22 22:34 064 19.4
2017-Sep-22 22:29 064 19.4
2017-Sep-22 22:24 064 19.4
2017-Sep-22 22:19 064 19.4
2017-Sep-22 22:14 064 19.4
2017-Sep-22 22:09 027 19.4
2017-Sep-22 22:04 027 19.4
2017-Sep-22 21:59 027 19.4
2017-Sep-22 21:54 017 19.4
2017-Sep-22 21:49 016 19.4
2017-Sep-22 21:44 016 19.4
2017-Sep-22 21:39 017 19.4
2017-Sep-22 21:34 014 19.4
2017-Sep-22 21:29 068 0 19.4
2017-Sep-22 21:24 068 0 19.4
2017-Sep-22 21:20 069 0 19.4
2017-Sep-22 21:14 089 0 19.4
2017-Sep-22 21:09 071 19.4
2017-Sep-22 21:04 001 0 19.4
2017-Sep-22 20:59 001 19.4
2017-Sep-22 20:54 051 20.0
2017-Sep-22 20:49 052 0 20.0
2017-Sep-22 20:44 045 0 20.0
2017-Sep-22 20:39 041 0 20.0
2017-Sep-22 20:35 056 0 20.0
2017-Sep-22 20:29 078 20.0
2017-Sep-22 20:24 078 0 20.0
2017-Sep-22 20:19 082 0 20.0
2017-Sep-22 20:14 069 0 20.6
2017-Sep-22 20:09 055 20.6
2017-Sep-22 20:04 007 20.6
2017-Sep-22 19:59 007 20.6
2017-Sep-22 19:54 018 20.6
2017-Sep-22 19:49 018 20.6
2017-Sep-22 19:44 013 20.6
2017-Sep-22 19:39 356 0 20.6
2017-Sep-22 19:34 360 0 20.6
2017-Sep-22 19:29 360 0 20.6
2017-Sep-22 19:24 360 20.6
2017-Sep-22 19:19 038 20.6
2017-Sep-22 19:14 003 20.6
2017-Sep-22 19:09 001 0 20.6
2017-Sep-22 19:04 071 0 20.6